Temp
19 20 20 20 20 20 21 21 22 22 22 23 23 23 23 24 25 25 25 28 30 29 30 30 31 31 31 31 30 29 32 32 32 30 32 29 29 28 29 29 29 29 28 29 25
19 20 20 20 20 20 21 21 22 22 22 22 23 23 23 24 23 22 28 28 29 29 30 31 32 31 33 31 31 32 32 32 32 32 32 30 31 29 29 29 29 28 27 26 25
19 19 20 20 20 20 21 21 22 22 22 22 23 23 23 24 24 29 29 29 30 30 30 30 29 31 32 31 31 30 33 31 32 32 31 30 30 30 30 29 30 29 29 27 26
19 20 20 20 20 20 21 22 22 22 22 22 23 23 24 23 29 29 30 30 30 29 29 29 30 31 32 32 30 31 31 31 33 30 30 30 31 30 31 32 31 30 29 28 27
20 20 20 20 20 21 21 22 22 22 22 22 23 23 23 25 28 29 30 30 29 29 29 30 31 31 33 31 30 30 31 31 31 29 30 31 30 31 30 31 30 30 28 28 28
20 20 20 20 21 21 22 22 22 22 22 23 23 23 22 28 29 29 30 30 30 30 29 29 31 31 31 30 31 31 31 31 31 30 30 31 30 29 32 30 29 28 28 28 27
20 20 20 21 21 22 22 22 22 22 23 23 23 22 22 29 29 29 29 30 30 30 30 29 30 31 30 31 30 31 33 32 30 30 30 31 29 29 32 29 29 28 28 27 26
20 20 21 21 22 22 22 22 22 23 23 23 23 22 26 29 29 29 29 29 30 29 29 29 29 31 31 30 31 32 31 33 31 31 29 31 33 33 30 29 29 28 27 26 25
21 21 21 21 22 22 23 23 23 23 23 24 23 22 30 30 30 31 30 30 29 28 28 28 29 30 31 33 33 32 32 32 32 30 31 31 33 30 28 29 29 27 27 26 25
21 22 22 22 22 23 23 23 23 23 23 23 22 24 29 31 31 31 31 30 31 30 30 31 31 33 32 33 33 32 32 31 32 31 31 31 30 29 26 28 27 26 26 26 26
22 22 22 22 23 23 23 23 24 24 23 28 28 28 29 30 30 32 32 31 31 32 32 30 34 32 31 30 31 31 31 32 31 30 29 27 28 27 25 25 25 26 25 26 26
22 23 23 23 23 23 23 24 25 26 27 25 25 26 27 28 31 32 32 33 32 32 31 33 32 31 30 30 31 31 31 31 31 29 30 28 28 26 26 25 24 25 25 26 26
22 23 23 23 23 23 23 25 25 25 26 28 27 28 30 29 31 32 33 32 32 32 31 31 31 29 30 31 32 31 31 31 31 29 28 29 29 28 27 26 25 25 25 25 25
23 23 23 23 23 23 23 25 24 24 28 30 30 32 30 31 32 31 31 33 32 32 30 31 29 30 31 31 31 31 30 30 29 29 30 27 30 28 27 28 26 26 26 26 26
24 24 24 23 23 23 25 25 24 25 27 30 31 30 30 32 32 32 31 33 32 31 31 30 31 31 32 30 30 31 28 28 27 28 29 28 29 28 27 29 29 28 27 27 27
24 25 24 23 24 25 25 24 25 28 27 29 30 31 32 31 32 31 32 31 30 30 30 30 30 31 31 28 29 28 28 27 26 28 29 26 27 29 28 29 29 29 29 28 28
25 26 25 25 25 25 24 25 28 27 27 28 29 30 31 31 31 32 31 31 31 30 30 31 30 31 30 31 30 30 30 30 29 29 28 26 27 28 28 28 28 29 30 30 28
25 25 25 25 24 24 25 28 26 26 27 28 29 29 31 30 30 30 30 30 28 29 29 30 30 31 30 31 31 28 29 29 27 27 28 27 28 29 27 27 27 27 28 27 27
25 24 24 24 25 24 27 26 27 26 27 27 28 29 30 29 30 30 30 30 30 29 31 30 30 30 29 30 29 28 29 26 25 23 26 27 28 28 27 28 27 28 28 27 26
24 23 23 24 24 24 26 24 25 25 27 27 28 28 29 30 30 30 29 29 30 28 28 29 29 29 29 29 28 29 26 28 27 26 26 27 26 29 29 29 28 28 27 26 26
22 23 23 24 25 25 26 25 25 26 26 27 27 28 28 29 28 28 29 28 28 27 28 27 28 29 29 29 29 28 28 25 26 25 27 26 28 29 29 28 27 28 26 27 25
18 24 23 24 25 20 25 24 23 27 27 27 27 27 28 28 28 28 28 27 25 27 29 25 27 29 28 27 27 28 27 26 27 26 24 24 27 26 26 26 25 25 27 26 24
17 19 23 24 24 23 23 25 25 26 27 27 27 27 27 27 28 27 27 26 24 27 27 26 26 27 28 28 27 28 26 23 23 23 25 25 27 26 26 26 25 25 27 25 24
18 24 23 20 19 23 24 25 26 25 26 26 27 27 27 27 26 27 27 26 25 24 20 24 24 28 29 28 27 27 26 25 25 25 26 26 27 28 27 26 26 25 24 25 24
15 18 17 24 23 23 24 24 25 25 26 26 27 28 28 27 27 27 26 27 26 23 23 26 26 26 25 26 26 27 27 25 26 26 25 27 25 27 26 25 24 24 24 24 24
18 19 17 19 19 22 21 23 24 25 25 27 27 27 27 28 28 28 27 27 28 25 24 23 24 25 26 25 26 26 26 25 25 25 24 24 26 25 25 25 25 25 25 25 24
11 12 17 16 20 23 23 23 24 23 26 26 26 26 26 27 26 25 23 22 24 26 24 24 24 25 26 24 25 25 26 26 26 26 25 25 26 24 25 25 25 25 25 24 24
Height
823 822 822 822 821 821 820 819 818 818 817 817 815 813 811 808 803 799 796 794 795 795 797 800 800 800 800 802 805 807 821 829 824 830 816 816 821 821 819 824 826 826 826 822 827
821 821 821 820 821 821 819 818 817 817 817 816 814 812 810 805 799 795 791 790 793 794 797 798 799 800 802 804 807 809 823 820 808 806 810 814 814 819 823 826 828 826 825 825 828
819 819 819 819 820 819 818 817 817 816 816 815 813 811 808 803 800 792 790 790 792 795 796 797 799 800 805 806 808 813 816 810 805 803 804 811 815 815 819 828 819 820 821 823 827
817 817 817 818 818 818 816 816 816 816 815 814 812 810 806 803 811 791 790 791 793 794 796 798 800 803 806 809 808 816 805 806 800 804 807 812 808 816 813 811 809 815 819 823 825
815 816 816 816 816 816 815 814 815 815 814 813 811 809 806 805 797 791 790 792 794 796 797 799 801 802 805 807 810 814 807 804 801 805 809 808 810 813 812 807 811 813 820 823 826
813 813 814 814 814 813 813 813 814 813 813 811 810 809 808 806 792 791 791 793 794 795 797 798 797 796 802 807 810 805 807 804 803 805 807 812 817 818 805 808 812 815 819 824 827
810 811 812 811 811 811 811 812 812 812 811 810 808 807 807 796 792 792 792 793 793 794 796 796 796 796 800 805 801 802 807 807 810 809 813 809 826 819 804 808 812 814 819 826 830
808 809 809 809 809 809 809 810 811 810 809 808 807 807 801 791 790 790 790 792 792 793 795 796 796 796 798 799 803 808 811 819 813 811 816 812 821 804 809 810 811 815 821 827 831
806 807 807 807 807 807 807 808 809 808 808 807 807 807 798 790 789 788 788 790 791 793 795 796 797 800 797 804 812 815 827 826 821 814 814 817 818 813 810 811 814 819 823 826 832
804 804 805 805 805 806 807 806 807 806 806 806 807 809 792 793 789 788 787 789 790 794 796 797 799 802 805 810 833 828 827 826 826 821 817 823 823 817 818 815 820 824 825 827 831
803 803 803 803 805 805 806 805 808 809 805 799 800 799 793 790 788 787 787 788 789 792 805 803 805 819 817 818 817 821 824 828 823 820 826 836 831 826 824 822 824 825 828 828 831
802 801 802 803 804 804 804 804 803 805 804 797 798 797 793 791 793 786 786 792 796 809 805 807 818 813 813 816 817 820 827 829 824 822 821 834 833 829 825 825 826 826 827 828 830
802 801 802 802 803 803 802 802 802 802 806 798 794 793 790 791 793 789 786 790 799 807 811 818 816 813 814 819 820 826 828 830 830 828 828 831 832 832 826 823 824 825 825 827 829
802 800 801 801 805 802 801 800 800 801 812 807 796 789 788 787 795 787 787 790 801 812 815 818 813 816 816 823 822 832 822 826 830 834 843 840 848 835 834 826 825 824 824 823 823
801 800 800 801 801 801 801 799 798 801 846 805 796 788 788 793 792 792 787 789 806 811 814 825 818 818 820 824 820 829 826 832 836 839 840 845 845 838 836 831 825 821 822 822 819
800 798 799 800 800 800 799 797 800 818 846 812 797 797 797 795 794 791 792 791 798 810 811 816 809 812 817 823 821 824 829 837 840 840 851 856 854 841 836 831 827 822 820 818 816
798 797 798 798 800 799 799 800 819 834 815 818 811 801 801 804 802 799 805 811 816 830 831 820 821 813 813 820 817 821 831 849 854 856 861 855 852 840 830 828 825 821 817 813 819
798 797 797 798 799 799 799 807 838 827 822 807 807 807 810 804 807 807 813 820 816 819 832 835 847 821 815 820 827 837 836 853 879 872 860 850 855 838 828 824 823 820 816 817 819
797 797 798 798 796 798 801 828 829 826 817 817 809 813 814 809 808 811 816 818 813 812 827 835 838 819 819 817 823 837 842 846 864 877 867 856 844 829 827 824 822 817 814 818 820
797 797 798 797 797 797 809 832 825 818 813 813 823 814 821 814 816 815 819 813 813 812 812 823 842 827 824 819 827 829 840 851 853 873 877 858 858 841 828 822 817 815 816 819 819
797 800 799 797 797 800 819 823 821 812 811 816 819 818 816 817 817 824 820 815 812 815 812 821 828 835 827 833 836 838 841 855 855 863 868 870 851 821 821 818 819 813 817 815 818
801 805 799 798 809 824 819 820 816 813 808 811 810 813 814 815 819 822 822 821 815 811 817 824 831 841 839 833 832 832 843 845 853 866 869 870 853 823 823 820 820 816 812 813 819
810 810 801 799 818 822 821 817 814 814 813 812 813 810 809 816 824 820 819 814 815 814 818 819 840 851 846 838 834 838 845 854 857 861 863 865 846 822 819 818 816 815 811 817 818
813 810 805 807 815 814 819 821 819 812 814 812 812 808 812 818 816 821 821 816 815 818 823 818 840 836 844 840 838 846 845 849 850 858 852 850 840 824 819 819 816 819 820 819 818
818 822 823 814 814 815 814 818 823 822 812 811 812 810 813 822 820 822 819 817 816 820 821 819 837 840 841 838 839 840 842 846 847 843 853 840 845 828 825 825 823 822 820 819 820
820 821 823 822 822 817 822 822 822 819 817 814 815 811 812 817 814 818 816 819 817 819 825 829 844 839 846 842 842 843 841 841 842 841 846 842 837 827 824 821 821 820 819 818 819
826 826 824 830 823 819 820 820 820 819 811 809 811 813 815 813 810 813 817 820 819 819 828 831 839 843 849 849 847 853 840 838 837 835 838 842 830 827 824 823 822 821 820 819 820
Wind_Speed
7 6 7 6 7 8 8 8 7 8 9 10 12 15 19 24 28 22 8 8 3 9 10 2 3 3 3 2 3 1 1 2 3 7 2 10 13 4 3 7 6 7 4 8 15
8 7 7 7 8 8 8 8 7 7 9 10 12 16 21 27 24 7 5 5 12 4 4 5 3 3 2 2 2 3 2 4 3 6 4 12 15 11 7 7 10 9 5 11 17
8 8 7 7 9 9 8 7 7 8 9 10 13 17 21 23 5 1 5 7 12 7 6 5 5 2 4 2 2 2 3 2 5 8 7 16 13 9 8 8 15 15 14 18 18
8 9 8 8 9 9 8 7 7 8 9 11 14 18 21 6 2 2 1 11 11 10 6 5 3 4 2 2 3 3 6 7 3 6 8 18 12 12 16 4 11 12 17 20 16
9 10 9 9 9 8 8 6 7 8 9 11 13 17 9 3 5 3 3 13 10 7 3 3 3 4 1 0 2 4 2 3 4 8 3 12 17 11 19 11 2 12 18 18 15
10 10 10 9 8 8 7 6 8 8 10 11 13 14 3 1 1 2 6 12 8 8 5 5 4 1 2 2 3 2 2 1 2 7 7 16 8 7 15 11 7 14 18 16 14
10 10 10 8 8 6 6 7 8 8 10 11 13 8 1 4 3 3 8 7 9 9 4 5 4 2 5 2 1 2 1 5 8 4 4 11 5 17 9 11 13 15 15 12 11
9 9 8 7 6 5 6 8 8 9 11 12 11 4 6 3 6 9 9 7 8 10 8 5 4 1 2 2 2 3 3 1 8 3 3 7 13 15 6 13 16 14 12 11 7
9 8 7 7 5 5 7 8 9 11 11 9 2 1 4 8 2 5 5 2 2 6 6 3 2 1 0 3 2 5 5 2 3 4 6 8 7 5 4 12 11 11 11 11 8
6 6 6 6 5 4 6 8 9 8 3 1 0 2 3 4 5 3 1 4 3 8 5 1 2 2 3 1 1 3 4 5 6 6 6 3 3 10 4 7 7 8 9 11 10
1 4 5 5 3 3 4 2 2 2 2 3 1 3 5 9 4 3 2 4 2 6 4 4 5 5 3 1 3 5 5 5 3 5 4 3 4 9 5 0 2 6 7 10 9
5 1 3 2 2 3 3 2 2 3 3 4 6 6 8 4 2 1 2 2 4 3 1 2 4 2 5 6 5 5 3 2 1 5 2 2 5 8 6 2 2 4 7 9 8
11 2 2 3 4 4 3 3 0 3 1 3 4 3 2 6 2 1 1 1 3 4 4 1 2 4 5 6 6 3 2 1 3 3 7 1 2 5 4 3 2 3 6 7 9
12 3 4 4 2 3 3 7 9 6 2 2 1 1 2 1 2 1 0 2 3 2 3 2 3 7 7 4 1 1 2 3 2 2 2 4 1 1 6 4 3 1 3 6 9
13 2 6 8 3 2 1 7 3 3 3 1 0 1 1 2 0 3 1 2 3 3 3 2 5 5 6 2 1 3 6 4 3 4 2 6 3 2 3 3 3 2 4 6 10
14 3 5 6 4 2 6 7 2 1 1 3 2 2 3 1 1 2 1 5 3 4 6 3 1 2 3 2 2 6 2 4 3 0 2 5 3 1 3 3 3 4 6 9 9
15 2 6 5 1 2 2 1 1 2 2 4 3 3 2 2 1 1 2 2 1 4 4 3 3 1 1 3 4 4 3 3 1 3 3 3 3 3 5 4 6 6 8 10 3
15 2 3 5 1 4 3 2 3 0 3 3 2 1 4 3 1 2 3 2 2 2 3 3 3 1 2 1 2 4 3 4 4 4 6 2 2 2 3 5 6 8 11 7 4
12 3 1 4 3 4 3 3 1 2 2 6 4 3 1 2 1 2 1 3 3 6 3 4 3 0 4 3 2 3 2 2 5 1 3 2 3 6 5 8 8 11 11 6 6
6 2 4 3 1 1 4 2 1 2 3 2 4 1 4 4 4 3 3 2 1 2 1 5 3 2 3 1 11 1 7 0 2 3 6 2 4 5 6 11 13 14 9 5 7
3 2 7 1 2 4 3 2 2 4 3 1 2 2 2 2 3 3 1 1 2 3 3 4 1 2 2 3 1 3 2 5 2 2 4 5 6 3 9 8 10 12 6 7 5
3 2 7 1 3 1 3 4 1 2 2 2 1 2 1 1 2 3 5 1 3 3 5 2 3 3 2 1 1 2 3 2 0 1 0 2 7 2 6 9 10 10 7 4 2
2 2 4 1 4 2 1 1 1 1 2 3 2 1 2 2 3 1 1 2 4 1 5 7 2 3 3 3 2 2 3 4 4 1 4 4 5 2 7 7 5 6 6 2 3
1 1 2 3 2 5 4 2 1 1 3 2 2 1 1 2 3 3 1 4 2 2 5 5 3 2 3 2 3 4 2 2 1 2 3 8 12 13 10 7 3 3 3 4 5
3 1 2 2 2 3 3 2 2 2 2 1 1 1 2 2 1 2 2 1 2 1 3 2 3 1 2 3 2 2 2 4 4 4 5 9 6 10 9 7 6 3 2 4 4
2 1 1 2 2 3 1 2 4 2 2 0 2 1 3 3 2 3 3 2 1 3 3 2 3 2 3 1 1 2 3 3 3 2 7 7 8 5 5 4 3 4 5 6 6
3 1 2 2 1 2 4 4 3 1 2 2 3 2 2 1 1 4 6 6 3 2 2 2 5 3 2 1 2 4 4 2 3 4 3 6 4 8 5 5 6 8 6 8 8
Wind_Direction
257 267 280 295 304 310 316 320 325 330 332 331 332 332 329 326 321 313 254 236 217 225 247 252 119 49 26 94 85 143 176 223 204 187 203 154 184 182 116 132 172 195 219 213 163
253 264 276 289 298 303 311 315 320 321 326 328 328 328 331 328 322 290 320 198 182 150 130 142 140 109 151 144 125 209 215 229 219 206 187 169 189 173 184 149 197 210 217 184 167
257 261 272 285 292 299 306 310 315 317 322 325 325 329 332 328 295 292 11 149 158 160 139 117 106 108 170 196 174 153 247 211 240 228 171 166 186 184 194 202 204 208 196 188 185
254 262 268 279 286 296 300 306 308 312 318 321 325 331 332 337 106 345 63 141 155 158 130 102 113 147 152 208 143 247 260 231 275 170 174 173 163 206 206 204 199 208 196 187 194
252 260 265 274 281 290 294 300 302 309 313 315 325 333 343 317 257 334 102 162 150 157 138 148 168 176 112 220 155 217 292 257 292 138 177 170 187 195 222 216 255 190 181 198 202
253 256 263 267 276 284 289 295 301 304 305 312 321 333 336 324 252 128 139 169 185 179 176 176 218 151 125 198 215 216 241 102 30 139 150 179 183 203 233 219 168 174 187 198 199
253 256 256 262 269 279 285 292 296 297 299 307 317 330 262 240 157 51 173 187 196 194 188 215 226 180 154 176 318 309 144 132 35 140 136 158 191 225 232 193 198 190 191 196 196
250 248 252 255 257 267 281 284 289 292 293 303 313 309 259 290 281 290 217 222 215 217 227 268 207 131 226 120 81 63 55 107 37 132 108 222 235 243 205 185 208 195 190 195 182
244 243 242 244 251 259 276 287 293 288 296 300 325 256 289 316 340 346 193 162 155 225 221 127 139 99 127 51 92 41 92 87 88 33 147 210 259 33 301 213 218 196 195 201 185
244 238 233 233 246 272 291 297 286 284 272 353 237 248 255 322 315 301 176 194 159 134 126 216 82 86 69 33 86 100 96 79 72 28 54 114 303 337 8 224 214 199 202 209 204
306 228 224 226 255 286 294 299 251 182 192 219 280 268 290 306 301 217 175 156 123 68 49 17 74 39 39 58 107 120 93 75 80 25 105 55 359 347 338 108 199 202 214 228 222
9 218 220 203 220 246 265 191 167 83 314 232 255 272 265 261 308 312 130 108 73 68 306 53 96 18 125 139 108 88 77 44 179 22 119 161 51 14 10 318 272 235 232 238 234
17 23 176 178 210 243 209 179 92 285 314 296 213 227 225 180 155 312 54 121 62 55 38 152 79 143 140 126 101 71 98 232 311 68 74 296 129 15 12 354 280 240 263 252 245
13 33 180 172 169 182 221 200 318 198 75 328 270 72 151 199 8 255 76 96 66 92 128 49 353 157 130 88 359 28 341 287 311 241 341 339 257 24 351 17 17 8 247 264 264
9 356 191 179 126 189 164 295 153 174 133 332 268 23 67 198 86 37 63 51 111 108 216 53 105 111 82 35 258 54 60 56 58 110 170 25 272 77 340 162 159 203 240 245 251
2 330 191 201 236 238 314 137 151 51 98 15 315 179 137 20 88 101 94 65 88 85 65 94 14 38 85 95 68 126 100 69 85 118 39 358 304 140 189 205 196 229 245 247 253
0 317 190 189 133 325 124 74 100 90 308 13 15 346 174 151 146 84 81 56 147 131 111 69 34 73 147 96 80 62 25 360 47 26 358 360 269 352 242 261 247 246 239 245 291
0 42 211 233 235 6 141 67 87 31 342 338 350 265 186 159 81 83 89 126 111 103 122 137 160 278 33 9 107 56 33 31 356 334 336 312 345 28 272 270 257 262 258 278 274
355 7 122 330 286 205 99 74 147 172 323 331 312 151 120 112 113 119 139 185 219 188 126 147 181 29 35 102 318 135 75 70 109 110 275 352 246 256 246 249 248 247 243 252 269
355 7 22 354 72 117 82 153 205 233 309 6 27 11 169 145 153 182 187 176 210 180 273 175 135 40 130 125 54 298 130 298 52 315 324 295 278 301 270 243 235 242 242 250 255
37 80 357 115 25 49 132 172 248 253 279 308 331 335 94 128 109 153 222 64 2 124 118 137 127 145 201 28 71 145 144 66 93 340 305 304 306 253 280 301 285 267 245 245 258
31 99 352 62 62 20 142 176 216 320 307 291 270 258 56 76 96 164 216 251 352 215 149 93 113 131 94 92 269 76 103 120 31 276 170 314 283 14 302 297 283 279 234 229 260
45 304 3 79 136 135 195 129 248 337 319 326 308 357 9 86 110 111 115 25 354 197 161 178 57 113 131 158 130 100 102 98 97 99 219 287 287 337 310 301 281 240 230 201 253
15 93 8 60 45 138 139 125 298 318 261 284 287 183 122 61 27 132 94 16 10 82 58 94 100 172 213 111 111 156 135 134 201 240 303 263 298 314 328 302 317 336 339 285 277
17 73 1 121 100 121 103 126 114 310 228 277 238 222 142 132 86 112 137 156 79 138 58 63 104 112 93 92 154 162 177 181 237 279 263 320 285 298 349 337 338 320 259 259 279
35 353 92 68 338 124 41 164 187 246 249 37 219 146 187 165 198 186 158 199 127 60 68 11 127 137 147 105 9 248 263 256 243 246 260 277 285 6 326 313 312 285 288 299 282
28 358 291 360 70 157 161 163 173 207 223 265 294 175 186 319 73 59 83 70 75 118 112 74 138 156 178 4 360 275 229 210 277 245 259 274 337 324 330 18 14 349 323 308 331